Date String (YYYY-MM-DD hh:mm:ss) UTC,Instrument flags,Ambient pressure (hPa),Sample flow (lpm),Bypass flow (lpm),Sample temperature (°C),Ambient temperature (°C),ASC tube jacket temperature (°C),LED temperature (°C),Box temperature (°C),Sample RH (%),Span deviation,Mass concentration (μg/m³),Mass concentration (μg/m³),Mass concentration (μg/m³)
DateTimeUTC,F1_M11,P_M11,Q1_M11,Q2_M11,T1_M11,T2_M11,T3_M11,T4_M11,T5_M11,U1_M11,ZSPAN_M11,X0_M11,X2_M11,X1_M11
2022-10-10 04:00:00,,0830.9,5.00,0.00,29.8,28.3,00.0,38.6,31.6,12.6,0000.0,0011.27,0005.57,0005.01
2022-10-10 04:01:00,,0830.9,5.01,0.00,29.8,28.3,00.0,38.6,31.6,12.6,0000.0,0011.67,0005.58,0005.00
2022-10-10 04:02:00,,0830.9,4.99,0.00,29.8,28.3,00.0,38.6,31.6,12.6,0000.0,0011.39,0005.61,0005.02
2022-10-10 04:03:00,,0830.9,5.01,0.00,29.8,28.3,00.0,38.6,31.6,12.6,0000.0,0012.19,0005.66,0005.02
2022-10-10 04:04:00,,0830.9,4.98,0.00,29.8,28.3,00.0,38.6,31.6,12.6,0000.0,0012.30,0005.65,0005.02
2022-10-10 04:05:00,,0830.9,5.01,0.00,29.8,28.3,00.0,38.6,31.6,12.6,0000.0,0011.77,0005.63,0005.02
2022-10-10 04:06:00,,0830.9,5.00,0.00,29.8,28.3,00.0,38.6,31.6,12.6,0000.0,0011.73,0005.65,0005.02
2022-10-10 04:07:00,,0830.9,4.99,0.00,29.8,28.3,00.0,38.6,31.6,12.6,0000.5,0011.70,0005.65,0005.01
2022-10-10 04:08:00,,0830.9,5.01,0.00,29.8,28.3,00.0,38.6,31.6,12.6,0000.0,0011.29,0005.65,0005.01
2022-10-10 04:09:00,,0830.9,4.99,0.00,29.8,28.3,00.0,38.6,31.6,12.6,0000.0,0011.11,0005.66,0004.99
2022-10-10 04:10:00,,0830.9,5.01,0.00,29.8,28.3,00.0,38.6,31.6,12.6,0000.0,0012.35,0005.65,0004.99
2022-10-10 04:11:00,,0830.9,4.99,0.00,29.8,28.3,00.0,38.6,31.6,12.6,0000.0,0012.28,0005.58,0004.98
2022-10-10 04:12:00,,0830.9,5.01,0.00,29.8,28.3,00.0,38.6,31.7,12.7,0000.0,0011.72,0005.56,0004.98
2022-10-10 04:13:00,,0830.9,5.00,0.00,29.8,28.3,00.0,38.6,31.7,12.6,0000.0,0011.74,0005.57,0004.99
2022-10-10 04:14:00,,0830.9,4.99,0.00,29.8,28.3,00.0,38.6,31.6,12.6,0000.0,0011.08,0005.52,0004.99
2022-10-10 04:15:00,,0830.9,5.02,0.00,29.8,28.3,00.0,38.6,31.6,12.6,0001.2,0011.07,0005.48,0004.99
2022-10-10 04:16:00,,0831.0,4.99,0.00,29.8,28.3,00.0,38.6,31.6,12.7,0000.0,0011.39,0005.48,0004.99
2022-10-10 04:17:00,,0830.9,4.99,0.00,29.8,28.3,00.0,38.6,31.7,12.7,0000.0,0011.33,0005.46,0004.98
2022-10-10 04:18:00,,0830.9,5.00,0.00,29.8,28.3,00.0,38.6,31.7,12.6,0000.0,0011.23,0005.45,0004.99
2022-10-10 04:19:00,,0830.9,5.00,0.00,29.8,28.3,00.0,38.6,31.6,12.6,0000.0,0011.16,0005.47,0005.00
2022-10-10 04:20:00,,0830.9,5.00,0.00,29.8,28.3,00.0,38.6,31.6,12.5,0000.0,0010.70,0005.51,0005.02
2022-10-10 04:21:00,,0830.9,4.99,0.00,29.8,28.3,00.0,38.6,31.6,12.5,0000.0,0009.71,0005.53,0005.03
2022-10-10 04:22:00,,0830.9,5.00,0.00,29.8,28.3,00.0,38.6,31.6,12.5,0000.0,0009.88,0005.56,0005.04
2022-10-10 04:23:00,,0830.8,5.01,0.00,29.8,28.3,00.0,38.6,31.6,12.6,0000.0,0009.97,0005.56,0005.03
2022-10-10 04:24:00,,0830.8,5.00,0.00,29.8,28.3,00.0,38.6,31.6,12.7,0000.0,0010.22,0005.54,0005.01
2022-10-10 04:25:00,,0830.8,5.00,0.00,29.8,28.3,00.0,38.6,31.6,12.7,0000.0,0009.99,0005.51,0005.02
2022-10-10 04:26:00,,0830.8,4.99,0.00,29.8,28.3,00.0,38.6,31.6,12.7,0000.0,0010.09,0005.56,0005.03
2022-10-10 04:27:00,,0830.8,5.01,0.00,29.8,28.3,00.0,38.6,31.7,12.7,0000.0,0010.05,0005.59,0005.03
2022-10-10 04:28:00,,0830.8,4.99,0.00,29.8,28.3,00.0,38.6,31.6,12.7,0000.0,0010.33,0005.60,0005.04
2022-10-10 04:29:00,,0830.8,4.99,0.00,29.8,28.3,00.0,38.6,31.6,12.7,0000.0,0010.37,0005.61,0005.04
2022-10-10 04:30:00,,0830.8,4.99,0.00,29.8,28.3,00.0,38.6,31.6,12.7,0000.0,0010.40,0005.62,0005.04
2022-10-10 04:31:00,,0830.7,5.01,0.00,29.8,28.3,00.0,38.6,31.6,12.7,0000.0,0010.31,0005.59,0005.04
2022-10-10 04:32:00,,0830.7,5.00,0.00,29.8,28.3,00.0,38.6,31.6,12.7,0000.0,0010.26,0005.58,0005.03
2022-10-10 04:33:00,,0830.8,4.99,0.00,29.8,28.3,00.0,38.6,31.6,12.7,0000.0,0009.77,0005.57,0005.04
2022-10-10 04:34:00,,0830.8,5.01,0.00,29.8,28.3,00.0,38.6,31.6,12.8,0000.0,0010.81,0005.57,0005.04
2022-10-10 04:35:00,,0830.8,4.99,0.00,29.8,28.3,00.0,38.6,31.6,12.8,0000.0,0011.17,0005.60,0005.06
2022-10-10 04:36:00,,0830.8,5.01,0.00,29.8,28.3,00.0,38.6,31.6,12.7,0000.0,0011.24,0005.64,0005.07
2022-10-10 04:37:00,,0830.8,5.00,0.00,29.8,28.2,00.0,38.6,31.6,12.8,0000.4,0011.60,0005.65,0005.07
2022-10-10 04:38:00,,0830.8,4.99,0.00,29.8,28.2,00.0,38.6,31.6,12.8,0001.6,0011.14,0005.64,0005.08
2022-10-10 04:39:00,,0830.8,5.01,0.00,29.8,28.2,00.0,38.6,31.6,12.8,0001.5,0011.03,0005.66,0005.10
2022-10-10 04:40:00,,0830.8,4.99,0.00,29.8,28.2,00.0,38.6,31.6,12.8,0001.5,0011.46,0005.68,0005.12
2022-10-10 04:41:00,,0830.8,5.01,0.00,29.8,28.2,00.0,38.6,31.6,12.8,0001.0,0011.55,0005.71,0005.13
2022-10-10 04:42:00,,0830.8,5.01,0.00,29.8,28.2,00.0,38.6,31.6,12.7,0000.7,0012.30,0005.73,0005.14
2022-10-10 04:43:00,,0830.8,4.99,0.00,29.8,28.2,00.0,38.6,31.5,12.8,0000.4,0013.14,0005.74,0005.16
2022-10-10 04:44:00,,0830.8,5.00,0.00,29.8,28.2,00.0,38.6,31.5,12.7,0000.6,0013.18,0005.75,0005.15
2022-10-10 04:45:00,,0830.8,5.01,0.00,29.8,28.2,00.0,38.6,31.5,12.7,0000.7,0012.55,0005.75,0005.17
2022-10-10 04:46:00,,0830.8,4.99,0.00,29.8,28.2,00.0,38.6,31.6,12.7,0000.4,0012.31,0005.73,0005.17
2022-10-10 04:47:00,,0830.8,5.00,0.00,29.8,28.2,00.0,38.6,31.6,12.7,-000.2,0012.38,0005.70,0005.16
2022-10-10 04:48:00,,0830.8,5.00,0.00,29.8,28.2,00.0,38.6,31.6,12.7,0000.0,0012.53,0005.70,0005.16
2022-10-10 04:49:00,,0830.8,4.99,0.00,29.8,28.2,00.0,38.6,31.5,12.6,0000.0,0012.51,0005.70,0005.15
2022-10-10 04:50:00,,0830.8,5.01,0.00,29.8,28.2,00.0,38.6,31.6,12.6,0000.0,0012.29,0005.66,0005.13
2022-10-10 04:51:00,,0830.8,4.99,0.00,29.8,28.2,00.0,38.6,31.6,12.6,0000.0,0012.58,0005.63,0005.11
2022-10-10 04:52:00,,0830.8,5.01,0.00,29.8,28.2,00.0,38.6,31.6,12.6,0000.0,0012.69,0005.60,0005.10
2022-10-10 04:53:00,,0830.8,5.00,0.00,29.8,28.2,00.0,38.6,31.6,12.7,0000.0,0012.15,0005.58,0005.09
2022-10-10 04:54:00,,0830.8,5.01,0.00,29.8,28.2,00.0,38.6,31.6,12.6,0000.0,0011.31,0005.55,0005.09
2022-10-10 04:55:00,,0830.7,4.99,0.00,29.8,28.2,00.0,38.6,31.6,12.6,0000.0,0011.18,0005.58,0005.09
2022-10-10 04:56:00,,0830.8,5.01,0.00,29.8,28.2,00.0,38.6,31.6,12.6,0000.0,0010.80,0005.59,0005.09
2022-10-10 04:57:00,,0830.8,5.00,0.00,29.8,28.3,00.0,38.6,31.6,12.6,0000.0,0010.48,0005.59,0005.09
2022-10-10 04:58:00,,0830.8,5.01,0.00,29.8,28.3,00.0,38.6,31.6,12.6,0000.0,0010.28,0005.58,0005.09
2022-10-10 04:59:00,,0830.8,5.01,0.00,29.8,28.3,00.0,38.6,31.6,12.6,0000.0,0010.01,0005.57,0005.09
